#timestamp,LO_Frequency,Hit,StdDev 
1560427215.9,286046996.5,N
1560427235.7,286047000.5,N
1560427255.5,286046998.1,N
1560427275.4,286046998.8,N
1560427295.2,286046998.8,N
1560427315.0,286046998.7,N
1560427315.9,286046998.7,N
1560427335.8,286047001.0,N
1560427355.6,286046998.3,N
1560427375.4,286046997.7,N
1560427395.2,286046997.9,N
1560427415.1,286046995.1,Y
1560427416.0,286046995.1,P
1560427435.8,286046997.9,N
1560427455.6,286046995.8,N
1560427475.5,286046995.9,N
1560427495.3,286046994.1,Y
1560427515.1,286046997.3,P
1560427535.9,286046997.2,P
1560427555.7,286046995.5,P
1560427575.5,286046995.2,Y
1560427595.4,286047000.3,P
1560427615.2,286047001.1,N
1560427635.0,286046998.4,N
1560427635.9,286046998.4,N
1560427655.8,286046998.2,N
1560427675.6,286047000.8,N
1560427695.4,286047000.7,N
1560427715.3,286046998.1,N
1560427735.1,286047000.5,N
1560427736.0,286047000.5,N
1560427755.8,286046998.4,N
1560427775.7,286046999.4,N
1560427795.5,286046999.4,N
1560427815.3,286046998.3,N
1560427835.1,286046998.9,N
1560427855.9,286047001.1,N
1560427875.7,286046998.6,N
1560427895.5,286046998.2,N
1560427915.4,286046998.4,N
1560427935.2,286046998.3,N
1560427955.0,286046998.8,N
1560427955.9,286046998.8,N
1560427975.8,286046998.7,N
1560427995.6,286046998.7,N
1560428015.4,286046996.6,Y
1560428035.3,286046998.7,P
1560428055.1,286046999.6,N
1560428056.0,286046999.6,N
1560428075.8,286046998.9,N
1560428095.7,286046999.3,N
1560428115.5,286046999.1,N
1560428135.3,286046999.4,N
1560428155.1,286046999.3,N
1560428175.9,286046998.8,Y
1560428195.7,286046998.6,P
1560428215.6,286046999.0,P
1560428235.4,286047000.4,N
1560428255.2,286046998.2,N
1560428275.0,286046998.9,N
1560428275.9,286046998.9,N
1560428295.8,286046998.8,N
1560428315.6,286046999.0,N
1560428335.4,286047000.4,N
1560428355.3,286046999.8,N
1560428375.1,286047000.7,N
1560428376.0,286047000.7,N
1560428395.8,286046999.9,N
1560428415.7,286047000.1,N
1560428435.5,286047000.5,N
1560428455.3,286047000.1,N
1560428475.2,286047002.7,Y
1560428495.9,286047002.2,P
1560428515.7,286047002.2,N
1560428535.6,286047000.2,N
1560428555.4,286047000.5,N
1560428575.2,286046999.7,N
1560428595.0,286047002.3,N
1560428595.9,286047002.3,N
1560428615.8,286047001.9,N
1560428635.6,286047001.4,N
1560428655.4,286047004.4,Y
1560428675.3,286046999.8,P
1560428695.1,286047000.4,N
1560428715.8,286047000.0,N
1560428735.7,286046999.9,N
1560428755.5,286047000.2,N
1560428775.3,286047002.3,Y
1560428795.2,286047000.9,P
1560428815.9,286047001.0,P
1560428835.7,286047000.8,N
1560428855.6,286046998.7,Y
1560428875.4,286046999.1,P
1560428895.2,286046996.6,P
1560428915.1,286046999.5,N
1560428916.0,286046999.5,N
1560428935.8,286046996.8,N
1560428955.6,286046997.6,N
1560428975.5,286046995.5,Y
1560428995.3,286046997.3,P
1560429015.1,286046997.9,P
1560429035.9,286046996.0,P
1560429055.7,286046996.0,Y
1560429075.5,286046997.7,P
1560429095.4,286046997.9,P
1560429115.2,286046995.5,P
1560429135.0,286046994.9,Y
1560429135.9,286046994.9,P
1560429155.8,286047000.9,N
1560429175.6,286046999.7,N
1560429195.4,286047000.2,N
1560429215.2,286047001.0,N
1560429235.1,286046998.5,N
1560429236.0,286046998.5,N
1560429255.8,286046998.8,N
1560429275.6,286046998.1,N
1560429295.5,286046998.7,N
1560429315.3,286046998.9,N
1560429335.1,286046996.5,N
1560429355.9,286046996.5,N
1560429375.7,286046997.0,N
1560429395.5,286046999.3,N
1560429415.4,286046998.8,N
1560429435.2,286046996.5,N
1560429455.0,286046998.7,N
1560429455.9,286046998.7,N
1560429475.7,286046999.0,N
1560429495.6,286046996.8,N
1560429515.4,286046996.6,N
1560429535.2,286046996.5,N
1560429555.1,286046999.5,N
1560429556.0,286046999.5,N
1560429575.8,286046996.9,N
1560429595.6,286046996.9,N
1560429615.5,286046997.3,N
1560429635.3,286046997.8,N
1560429655.1,286046995.1,Y
1560429675.9,286046996.9,P
1560429695.7,286046996.8,P
1560429715.5,286046997.7,P
1560429735.4,286046995.0,Y
1560429755.2,286046998.4,P
1560429775.0,286047000.7,N
1560429775.9,286047000.7,N
1560429795.8,286046998.1,N
1560429815.6,286047000.6,N
1560429835.4,286047000.6,N
1560429855.2,286047000.6,N
1560429875.1,286047000.9,N
1560429876.0,286047000.9,N
1560429895.8,286047000.3,N
1560429915.6,286047000.8,N
1560429935.5,286047001.2,N
1560429955.3,286046999.0,N
1560429975.1,286046999.1,N
1560429995.9,286046996.5,Y
1560430015.7,286046997.1,P
1560430035.5,286046997.1,N
1560430055.4,286046997.3,N
1560430075.2,286046996.6,N
1560430095.0,286046997.5,N
1560430095.9,286046997.5,N
1560430115.8,286046997.4,N
1560430135.6,286046997.9,N
1560430155.4,286046997.4,N
1560430175.3,286046997.3,Y
1560430195.1,286046998.9,P
1560430196.0,286046998.9,N
1560430215.8,286046998.1,P
1560430235.7,286046998.4,N
1560430255.5,286046998.7,N
1560430275.3,286046998.6,Y
1560430295.2,286047002.3,P
1560430315.9,286047000.4,N
1560430335.7,286047002.2,N
1560430355.5,286047002.8,N
1560430375.4,286047000.0,N
1560430395.2,286047000.5,N
1560430415.0,286047002.4,N
1560430415.9,286047002.4,N
1560430435.8,286047000.3,N
1560430455.6,286047000.6,N
1560430475.4,286046999.9,N
1560430495.3,286047000.3,N
1560430515.1,286046998.1,N
1560430516.0,286046998.1,N
1560430535.8,286047000.7,N
1560430555.7,286047000.2,N
1560430575.5,286047000.4,N
1560430595.3,286046999.9,N
1560430615.1,286047000.9,N
1560430635.9,286047001.1,N
1560430655.7,286047000.9,N
1560430675.5,286047000.8,N
1560430695.4,286046998.1,N
1560430715.2,286047001.2,N
1560430735.0,286047000.7,N
1560430735.9,286047000.7,N
1560430755.8,286047000.8,N
1560430775.6,286047000.7,N
1560430795.4,286047000.8,N
